owner,sensor,date,latitude,longitude,vertical_datum,sea_water_practical_salinity,qcFlag 
TABS,ioos:station:wmo:42048:1,2017-12-01T00:00:00Z,27.9396,-96.8429,2.0,30.6461,11111222 
TABS,ioos:station:wmo:42048:1,2017-12-01T00:30:00Z,27.9396,-96.8429,2.0,30.6445,11111222 
TABS,ioos:station:wmo:42048:1,2017-12-01T01:00:00Z,27.9396,-96.8429,2.0,30.6511,11111222 
TABS,ioos:station:wmo:42048:1,2017-12-01T01:30:00Z,27.9396,-96.8429,2.0,30.6474,11111222 
TABS,ioos:station:wmo:42048:1,2017-12-01T02:00:00Z,27.9396,-96.8429,2.0,30.6441,11111222 
TABS,ioos:station:wmo:42048:1,2017-12-01T02:30:00Z,27.9396,-96.8429,2.0,30.6424,11111222 
TABS,ioos:station:wmo:42048:1,2017-12-01T03:00:00Z,27.9396,-96.8429,2.0,30.6357,11111222 
TABS,ioos:station:wmo:42048:1,2017-12-01T03:30:00Z,27.9396,-96.8429,2.0,30.651,11111222 
TABS,ioos:station:wmo:42048:1,2017-12-01T04:00:00Z,27.9396,-96.8429,2.0,30.6511,11111222 
TABS,ioos:station:wmo:42048:1,2017-12-01T04:30:00Z,27.9396,-96.8429,2.0,30.6594,11111222 
TABS,ioos:station:wmo:42048:1,2017-12-01T05:00:00Z,27.9396,-96.8429,2.0,30.6617,11111222 
TABS,ioos:station:wmo:42048:1,2017-12-01T05:30:00Z,27.9396,-96.8429,2.0,30.6695,11111222 
TABS,ioos:station:wmo:42048:1,2017-12-01T06:00:00Z,27.9396,-96.8429,2.0,30.6713,11111222 
TABS,ioos:station:wmo:42048:1,2017-12-01T06:30:00Z,27.9396,-96.8429,2.0,30.6429,11111222 
TABS,ioos:station:wmo:42048:1,2017-12-01T07:00:00Z,27.9396,-96.8429,2.0,30.6301,11111222 
TABS,ioos:station:wmo:42048:1,2017-12-01T07:30:00Z,27.9396,-96.8429,2.0,30.607,11111222 
TABS,ioos:station:wmo:42048:1,2017-12-01T08:00:00Z,27.9396,-96.8429,2.0,30.6188,11111222 
TABS,ioos:station:wmo:42048:1,2017-12-01T08:30:00Z,27.9396,-96.8429,2.0,30.6432,11111222 
TABS,ioos:station:wmo:42048:1,2017-12-01T09:00:00Z,27.9396,-96.8429,2.0,30.6556,11111222 
TABS,ioos:station:wmo:42048:1,2017-12-01T09:30:00Z,27.9396,-96.8429,2.0,30.6915,11111222 
TABS,ioos:station:wmo:42048:1,2017-12-01T10:00:00Z,27.9396,-96.8429,2.0,30.7004,11111222 
TABS,ioos:station:wmo:42048:1,2017-12-01T10:30:00Z,27.9396,-96.8429,2.0,30.7183,11111222 
TABS,ioos:station:wmo:42048:1,2017-12-01T11:00:00Z,27.9396,-96.8429,2.0,30.6777,11111222 
TABS,ioos:station:wmo:42048:1,2017-12-01T11:30:00Z,27.9396,-96.8429,2.0,30.6706,11111222 
TABS,ioos:station:wmo:42048:1,2017-12-01T12:00:00Z,27.9396,-96.8429,2.0,30.7557,11111222 
TABS,ioos:station:wmo:42048:1,2017-12-01T12:30:00Z,27.9396,-96.8429,2.0,30.8483,11111222 
TABS,ioos:station:wmo:42048:1,2017-12-01T13:00:00Z,27.9396,-96.8429,2.0,30.839,11111222 
TABS,ioos:station:wmo:42048:1,2017-12-01T13:30:00Z,27.9396,-96.8429,2.0,30.8531,11111222 
TABS,ioos:station:wmo:42048:1,2017-12-01T14:00:00Z,27.9396,-96.8429,2.0,30.8758,11111222 
TABS,ioos:station:wmo:42048:1,2017-12-01T14:30:00Z,27.9396,-96.8429,2.0,30.9627,11111222 
TABS,ioos:station:wmo:42048:1,2017-12-01T15:00:00Z,27.9396,-96.8429,2.0,31.1089,11111222 
TABS,ioos:station:wmo:42048:1,2017-12-01T15:30:00Z,27.9396,-96.8429,2.0,31.1673,11111222 
TABS,ioos:station:wmo:42048:1,2017-12-01T16:00:00Z,27.9396,-96.8429,2.0,31.1935,11111222 
TABS,ioos:station:wmo:42048:1,2017-12-01T16:30:00Z,27.9396,-96.8429,2.0,31.2117,11111222 
TABS,ioos:station:wmo:42048:1,2017-12-01T17:00:00Z,27.9396,-96.8429,2.0,31.2167,11111222 
TABS,ioos:station:wmo:42048:1,2017-12-01T17:30:00Z,27.9396,-96.8429,2.0,31.2127,11111222 
TABS,ioos:station:wmo:42048:1,2017-12-01T18:00:00Z,27.9396,-96.8429,2.0,31.218,11111222 
TABS,ioos:station:wmo:42048:1,2017-12-01T18:30:00Z,27.9396,-96.8429,2.0,31.2218,11111222 
TABS,ioos:station:wmo:42048:1,2017-12-01T19:00:00Z,27.9396,-96.8429,2.0,31.2358,11111222 
TABS,ioos:station:wmo:42048:1,2017-12-01T19:30:00Z,27.9396,-96.8429,2.0,31.2394,11111222 
TABS,ioos:station:wmo:42048:1,2017-12-01T20:00:00Z,27.9396,-96.8429,2.0,31.1994,11111222 
TABS,ioos:station:wmo:42048:1,2017-12-01T20:30:00Z,27.9396,-96.8429,2.0,31.1878,11111222 
TABS,ioos:station:wmo:42048:1,2017-12-01T21:00:00Z,27.9396,-96.8429,2.0,31.1826,11111222 
TABS,ioos:station:wmo:42048:1,2017-12-01T21:30:00Z,27.9396,-96.8429,2.0,31.1762,11111222 
TABS,ioos:station:wmo:42048:1,2017-12-01T22:00:00Z,27.9396,-96.8429,2.0,31.1803,11111222 
TABS,ioos:station:wmo:42048:1,2017-12-01T22:30:00Z,27.9396,-96.8429,2.0,31.1489,11111222 
TABS,ioos:station:wmo:42048:1,2017-12-01T23:00:00Z,27.9396,-96.8429,2.0,31.1476,11111222 
TABS,ioos:station:wmo:42048:1,2017-12-01T23:30:00Z,27.9396,-96.8429,2.0,31.1447,11111222 
TABS,ioos:station:wmo:42048:1,2017-12-02T00:00:00Z,27.9396,-96.8429,2.0,31.1375,11111222 
TABS,ioos:station:wmo:42048:1,2017-12-02T00:30:00Z,27.9396,-96.8429,2.0,31.139,11111222 
TABS,ioos:station:wmo:42048:1,2017-12-02T01:00:00Z,27.9396,-96.8429,2.0,31.147,11111222 
TABS,ioos:station:wmo:42048:1,2017-12-02T01:30:00Z,27.9396,-96.8429,2.0,31.1272,11111222 
TABS,ioos:station:wmo:42048:1,2017-12-02T02:00:00Z,27.9396,-96.8429,2.0,31.1519,11111222 
TABS,ioos:station:wmo:42048:1,2017-12-02T02:30:00Z,27.9396,-96.8429,2.0,31.1496,11111222 
TABS,ioos:station:wmo:42048:1,2017-12-02T03:00:00Z,27.9396,-96.8429,2.0,31.1575,11111222 
TABS,ioos:station:wmo:42048:1,2017-12-02T03:30:00Z,27.9396,-96.8429,2.0,31.1581,11111222 
TABS,ioos:station:wmo:42048:1,2017-12-02T04:00:00Z,27.9396,-96.8429,2.0,31.1597,11111222 
TABS,ioos:station:wmo:42048:1,2017-12-02T04:30:00Z,27.9396,-96.8429,2.0,31.1673,11111222 
TABS,ioos:station:wmo:42048:1,2017-12-02T05:00:00Z,27.9396,-96.8429,2.0,31.1653,11111222 
TABS,ioos:station:wmo:42048:1,2017-12-02T05:30:00Z,27.9396,-96.8429,2.0,31.1607,11111222 
TABS,ioos:station:wmo:42048:1,2017-12-02T06:00:00Z,27.9396,-96.8429,2.0,30.9315,11111222 
TABS,ioos:station:wmo:42048:1,2017-12-02T07:30:00Z,27.9396,-96.8429,2.0,30.4983,11111222 
TABS,ioos:station:wmo:42048:1,2017-12-02T08:00:00Z,27.9396,-96.8429,2.0,30.5271,11111222 
TABS,ioos:station:wmo:42048:1,2017-12-02T08:30:00Z,27.9396,-96.8429,2.0,30.505,11111222 
TABS,ioos:station:wmo:42048:1,2017-12-02T09:00:00Z,27.9396,-96.8429,2.0,30.492,11111222 
TABS,ioos:station:wmo:42048:1,2017-12-02T09:30:00Z,27.9396,-96.8429,2.0,30.4597,11111222 
TABS,ioos:station:wmo:42048:1,2017-12-02T10:00:00Z,27.9396,-96.8429,2.0,30.4476,11111222 
TABS,ioos:station:wmo:42048:1,2017-12-02T10:30:00Z,27.9396,-96.8429,2.0,30.4224,11111222 
TABS,ioos:station:wmo:42048:1,2017-12-02T11:00:00Z,27.9396,-96.8429,2.0,30.3856,11111222 
TABS,ioos:station:wmo:42048:1,2017-12-02T11:30:00Z,27.9396,-96.8429,2.0,30.3729,11111222 
TABS,ioos:station:wmo:42048:1,2017-12-02T12:00:00Z,27.9396,-96.8429,2.0,30.351,11111222 
TABS,ioos:station:wmo:42048:1,2017-12-02T12:30:00Z,27.9396,-96.8429,2.0,30.3377,11111222 
TABS,ioos:station:wmo:42048:1,2017-12-02T13:00:00Z,27.9396,-96.8429,2.0,30.318,11111222 
TABS,ioos:station:wmo:42048:1,2017-12-02T13:30:00Z,27.9396,-96.8429,2.0,30.3033,11111222 
TABS,ioos:station:wmo:42048:1,2017-12-02T14:00:00Z,27.9396,-96.8429,2.0,30.2906,11111222 
TABS,ioos:station:wmo:42048:1,2017-12-02T14:30:00Z,27.9396,-96.8429,2.0,30.2788,11111222 
TABS,ioos:station:wmo:42048:1,2017-12-02T15:00:00Z,27.9396,-96.8429,2.0,30.2708,11111222 
TABS,ioos:station:wmo:42048:1,2017-12-02T15:30:00Z,27.9396,-96.8429,2.0,30.2618,11111222 
TABS,ioos:station:wmo:42048:1,2017-12-02T16:00:00Z,27.9396,-96.8429,2.0,30.2382,11111222 
TABS,ioos:station:wmo:42048:1,2017-12-02T16:30:00Z,27.9396,-96.8429,2.0,30.229,11111222 
TABS,ioos:station:wmo:42048:1,2017-12-02T17:00:00Z,27.9396,-96.8429,2.0,30.2165,11111222 
TABS,ioos:station:wmo:42048:1,2017-12-02T17:30:00Z,27.9396,-96.8429,2.0,30.207,11111222 
TABS,ioos:station:wmo:42048:1,2017-12-02T18:00:00Z,27.9396,-96.8429,2.0,30.1911,11111222 
TABS,ioos:station:wmo:42048:1,2017-12-02T18:30:00Z,27.9396,-96.8429,2.0,30.1753,11111222 
TABS,ioos:station:wmo:42048:1,2017-12-02T19:00:00Z,27.9396,-96.8429,2.0,30.1413,11111222 
TABS,ioos:station:wmo:42048:1,2017-12-02T19:30:00Z,27.9396,-96.8429,2.0,30.1406,11111222 
TABS,ioos:station:wmo:42048:1,2017-12-02T20:00:00Z,27.9396,-96.8429,2.0,30.1225,11111222 
TABS,ioos:station:wmo:42048:1,2017-12-02T20:30:00Z,27.9396,-96.8429,2.0,30.1333,11111222 
TABS,ioos:station:wmo:42048:1,2017-12-02T21:00:00Z,27.9396,-96.8429,2.0,30.1186,11111222 
TABS,ioos:station:wmo:42048:1,2017-12-02T21:30:00Z,27.9396,-96.8429,2.0,30.1113,11111222 
TABS,ioos:station:wmo:42048:1,2017-12-02T22:00:00Z,27.9396,-96.8429,2.0,30.118,11111222 
TABS,ioos:station:wmo:42048:1,2017-12-02T22:30:00Z,27.9396,-96.8429,2.0,30.1056,11111222 
TABS,ioos:station:wmo:42048:1,2017-12-02T23:00:00Z,27.9396,-96.8429,2.0,30.1055,11111222 
TABS,ioos:station:wmo:42048:1,2017-12-02T23:30:00Z,27.9396,-96.8429,2.0,30.0909,11111222 
TABS,ioos:station:wmo:42048:1,2017-12-03T00:00:00Z,27.9396,-96.8429,2.0,30.0741,11111222 
TABS,ioos:station:wmo:42048:1,2017-12-03T00:30:00Z,27.9396,-96.8429,2.0,30.0653,11111222 
TABS,ioos:station:wmo:42048:1,2017-12-03T01:00:00Z,27.9396,-96.8429,2.0,30.0582,11111222 
TABS,ioos:station:wmo:42048:1,2017-12-03T01:30:00Z,27.9396,-96.8429,2.0,30.0451,11111222 
TABS,ioos:station:wmo:42048:1,2017-12-03T02:00:00Z,27.9396,-96.8429,2.0,30.0573,11111222 
TABS,ioos:station:wmo:42048:1,2017-12-03T02:30:00Z,27.9396,-96.8429,2.0,30.0537,11111222 
TABS,ioos:station:wmo:42048:1,2017-12-03T03:00:00Z,27.9396,-96.8429,2.0,30.0558,11111222 
TABS,ioos:station:wmo:42048:1,2017-12-03T03:30:00Z,27.9396,-96.8429,2.0,30.0566,11111222 
TABS,ioos:station:wmo:42048:1,2017-12-03T04:00:00Z,27.9396,-96.8429,2.0,30.0546,11111222 
TABS,ioos:station:wmo:42048:1,2017-12-03T04:30:00Z,27.9396,-96.8429,2.0,30.0587,11111222 
TABS,ioos:station:wmo:42048:1,2017-12-03T05:00:00Z,27.9396,-96.8429,2.0,30.068,11111222 
TABS,ioos:station:wmo:42048:1,2017-12-03T05:30:00Z,27.9396,-96.8429,2.0,30.069,11111222 
TABS,ioos:station:wmo:42048:1,2017-12-03T06:00:00Z,27.9396,-96.8429,2.0,30.0683,11111222 
TABS,ioos:station:wmo:42048:1,2017-12-03T06:30:00Z,27.9396,-96.8429,2.0,30.0644,11111222 
TABS,ioos:station:wmo:42048:1,2017-12-03T07:00:00Z,27.9396,-96.8429,2.0,30.0558,11111222 
TABS,ioos:station:wmo:42048:1,2017-12-03T07:30:00Z,27.9396,-96.8429,2.0,30.0388,11111222 
TABS,ioos:station:wmo:42048:1,2017-12-03T08:00:00Z,27.9396,-96.8429,2.0,30.0311,11111222 
TABS,ioos:station:wmo:42048:1,2017-12-03T08:30:00Z,27.9396,-96.8429,2.0,29.9976,11111222 
TABS,ioos:station:wmo:42048:1,2017-12-03T09:00:00Z,27.9396,-96.8429,2.0,29.9855,11111222 
TABS,ioos:station:wmo:42048:1,2017-12-03T09:30:00Z,27.9396,-96.8429,2.0,29.9847,11111222 
TABS,ioos:station:wmo:42048:1,2017-12-03T10:00:00Z,27.9396,-96.8429,2.0,29.9743,11111222 
TABS,ioos:station:wmo:42048:1,2017-12-03T10:30:00Z,27.9396,-96.8429,2.0,29.9722,11111222 
TABS,ioos:station:wmo:42048:1,2017-12-03T11:00:00Z,27.9396,-96.8429,2.0,29.9778,11111222 
TABS,ioos:station:wmo:42048:1,2017-12-03T11:30:00Z,27.9396,-96.8429,2.0,30.0071,11111222 
TABS,ioos:station:wmo:42048:1,2017-12-03T12:00:00Z,27.9396,-96.8429,2.0,30.0176,11111222 
TABS,ioos:station:wmo:42048:1,2017-12-03T12:30:00Z,27.9396,-96.8429,2.0,30.0317,11111222 
TABS,ioos:station:wmo:42048:1,2017-12-03T13:00:00Z,27.9396,-96.8429,2.0,29.9945,11111222 
TABS,ioos:station:wmo:42048:1,2017-12-03T13:30:00Z,27.9396,-96.8429,2.0,29.965,11111222 
TABS,ioos:station:wmo:42048:1,2017-12-03T14:00:00Z,27.9396,-96.8429,2.0,29.9816,11111222 
TABS,ioos:station:wmo:42048:1,2017-12-03T14:30:00Z,27.9396,-96.8429,2.0,29.9574,11111222 
TABS,ioos:station:wmo:42048:1,2017-12-03T15:00:00Z,27.9396,-96.8429,2.0,29.991,11111222 
TABS,ioos:station:wmo:42048:1,2017-12-03T15:30:00Z,27.9396,-96.8429,2.0,30.0557,11111222 
TABS,ioos:station:wmo:42048:1,2017-12-03T16:00:00Z,27.9396,-96.8429,2.0,30.1486,11111222 
TABS,ioos:station:wmo:42048:1,2017-12-03T16:30:00Z,27.9396,-96.8429,2.0,30.1658,11111222 
TABS,ioos:station:wmo:42048:1,2017-12-03T17:00:00Z,27.9396,-96.8429,2.0,30.1645,11111222 
TABS,ioos:station:wmo:42048:1,2017-12-03T17:30:00Z,27.9396,-96.8429,2.0,30.141,11111222 
TABS,ioos:station:wmo:42048:1,2017-12-03T18:00:00Z,27.9396,-96.8429,2.0,30.1247,11111222 
TABS,ioos:station:wmo:42048:1,2017-12-03T18:30:00Z,27.9396,-96.8429,2.0,30.0851,11111222 
TABS,ioos:station:wmo:42048:1,2017-12-03T19:00:00Z,27.9396,-96.8429,2.0,30.0889,11111222 
TABS,ioos:station:wmo:42048:1,2017-12-03T19:30:00Z,27.9396,-96.8429,2.0,30.1085,11111222 
TABS,ioos:station:wmo:42048:1,2017-12-03T20:00:00Z,27.9396,-96.8429,2.0,30.0975,11111222 
TABS,ioos:station:wmo:42048:1,2017-12-03T20:30:00Z,27.9396,-96.8429,2.0,29.9501,11111222 
TABS,ioos:station:wmo:42048:1,2017-12-03T21:00:00Z,27.9396,-96.8429,2.0,29.9453,11111222 
TABS,ioos:station:wmo:42048:1,2017-12-03T21:30:00Z,27.9396,-96.8429,2.0,29.9792,11111222 
TABS,ioos:station:wmo:42048:1,2017-12-03T22:00:00Z,27.9396,-96.8429,2.0,29.9823,11111222 
TABS,ioos:station:wmo:42048:1,2017-12-03T22:30:00Z,27.9396,-96.8429,2.0,29.9905,11111222 
TABS,ioos:station:wmo:42048:1,2017-12-03T23:00:00Z,27.9396,-96.8429,2.0,29.9833,11111222 
TABS,ioos:station:wmo:42048:1,2017-12-03T23:30:00Z,27.9396,-96.8429,2.0,29.982,11111222 
TABS,ioos:station:wmo:42048:1,2017-12-04T00:00:00Z,27.9396,-96.8429,2.0,29.9691,11111222 
TABS,ioos:station:wmo:42048:1,2017-12-04T00:30:00Z,27.9396,-96.8429,2.0,29.9931,11111222 
TABS,ioos:station:wmo:42048:1,2017-12-04T01:00:00Z,27.9396,-96.8429,2.0,29.9767,11111222 
TABS,ioos:station:wmo:42048:1,2017-12-04T01:30:00Z,27.9396,-96.8429,2.0,29.9501,11111222 
TABS,ioos:station:wmo:42048:1,2017-12-04T02:00:00Z,27.9396,-96.8429,2.0,29.9378,11111222 
TABS,ioos:station:wmo:42048:1,2017-12-04T02:30:00Z,27.9396,-96.8429,2.0,29.978,11111222 
TABS,ioos:station:wmo:42048:1,2017-12-04T03:00:00Z,27.9396,-96.8429,2.0,29.9435,11111222 
TABS,ioos:station:wmo:42048:1,2017-12-04T03:30:00Z,27.9396,-96.8429,2.0,29.9716,11111222 
TABS,ioos:station:wmo:42048:1,2017-12-04T04:00:00Z,27.9396,-96.8429,2.0,30.0219,11111222 
TABS,ioos:station:wmo:42048:1,2017-12-04T04:30:00Z,27.9396,-96.8429,2.0,30.0824,11111222 
TABS,ioos:station:wmo:42048:1,2017-12-04T05:00:00Z,27.9396,-96.8429,2.0,30.1379,11111222 
TABS,ioos:station:wmo:42048:1,2017-12-04T05:30:00Z,27.9396,-96.8429,2.0,30.1766,11111222 
TABS,ioos:station:wmo:42048:1,2017-12-04T06:00:00Z,27.9396,-96.8429,2.0,30.2291,11111222 
TABS,ioos:station:wmo:42048:1,2017-12-04T06:30:00Z,27.9396,-96.8429,2.0,30.2587,11111222 
TABS,ioos:station:wmo:42048:1,2017-12-04T07:00:00Z,27.9396,-96.8429,2.0,30.2837,11111222 
TABS,ioos:station:wmo:42048:1,2017-12-04T07:30:00Z,27.9396,-96.8429,2.0,30.311,11111222 
TABS,ioos:station:wmo:42048:1,2017-12-04T08:00:00Z,27.9396,-96.8429,2.0,30.3784,11111222 
TABS,ioos:station:wmo:42048:1,2017-12-04T08:30:00Z,27.9396,-96.8429,2.0,30.3806,11111222 
TABS,ioos:station:wmo:42048:1,2017-12-04T09:00:00Z,27.9396,-96.8429,2.0,30.3423,11111222 
TABS,ioos:station:wmo:42048:1,2017-12-04T09:30:00Z,27.9396,-96.8429,2.0,30.273,11111222 
TABS,ioos:station:wmo:42048:1,2017-12-04T10:00:00Z,27.9396,-96.8429,2.0,30.2387,11111222 
TABS,ioos:station:wmo:42048:1,2017-12-04T10:30:00Z,27.9396,-96.8429,2.0,30.1938,11111222 
TABS,ioos:station:wmo:42048:1,2017-12-04T11:00:00Z,27.9396,-96.8429,2.0,30.115,11111222 
TABS,ioos:station:wmo:42048:1,2017-12-04T11:30:00Z,27.9396,-96.8429,2.0,30.0154,11111222 
TABS,ioos:station:wmo:42048:1,2017-12-04T12:00:00Z,27.9396,-96.8429,2.0,30.0014,11111222 
TABS,ioos:station:wmo:42048:1,2017-12-04T14:30:00Z,27.9396,-96.8429,2.0,29.8809,11111222 
TABS,ioos:station:wmo:42048:1,2017-12-04T15:00:00Z,27.9396,-96.8429,2.0,29.9064,11111222 
TABS,ioos:station:wmo:42048:1,2017-12-04T15:30:00Z,27.9396,-96.8429,2.0,29.8847,11111222 
TABS,ioos:station:wmo:42048:1,2017-12-04T16:00:00Z,27.9396,-96.8429,2.0,29.8802,11111222 
TABS,ioos:station:wmo:42048:1,2017-12-04T16:30:00Z,27.9396,-96.8429,2.0,29.8967,11111222 
TABS,ioos:station:wmo:42048:1,2017-12-04T17:00:00Z,27.9396,-96.8429,2.0,29.9322,11111222 
TABS,ioos:station:wmo:42048:1,2017-12-04T17:30:00Z,27.9396,-96.8429,2.0,30.0132,11111222 
TABS,ioos:station:wmo:42048:1,2017-12-04T18:00:00Z,27.9396,-96.8429,2.0,30.1811,11111222 
TABS,ioos:station:wmo:42048:1,2017-12-04T18:30:00Z,27.9396,-96.8429,2.0,30.269,11111222 
TABS,ioos:station:wmo:42048:1,2017-12-04T19:00:00Z,27.9396,-96.8429,2.0,30.2829,11111222 
TABS,ioos:station:wmo:42048:1,2017-12-04T19:30:00Z,27.9396,-96.8429,2.0,30.159,11111222 
TABS,ioos:station:wmo:42048:1,2017-12-04T20:00:00Z,27.9396,-96.8429,2.0,30.0973,11111222 
TABS,ioos:station:wmo:42048:1,2017-12-04T20:30:00Z,27.9396,-96.8429,2.0,30.0315,11111222 
TABS,ioos:station:wmo:42048:1,2017-12-04T21:00:00Z,27.9396,-96.8429,2.0,30.0299,11111222 
TABS,ioos:station:wmo:42048:1,2017-12-04T21:30:00Z,27.9396,-96.8429,2.0,29.9692,11111222 
TABS,ioos:station:wmo:42048:1,2017-12-04T22:00:00Z,27.9396,-96.8429,2.0,29.9332,11111222 
TABS,ioos:station:wmo:42048:1,2017-12-04T22:30:00Z,27.9396,-96.8429,2.0,29.9705,11111222 
TABS,ioos:station:wmo:42048:1,2017-12-04T23:00:00Z,27.9396,-96.8429,2.0,29.9454,11111222 
TABS,ioos:station:wmo:42048:1,2017-12-04T23:30:00Z,27.9396,-96.8429,2.0,29.9151,11111222 
TABS,ioos:station:wmo:42048:1,2017-12-05T00:00:00Z,27.9396,-96.8429,2.0,29.855,11111222 
TABS,ioos:station:wmo:42048:1,2017-12-05T00:30:00Z,27.9396,-96.8429,2.0,29.724,11111222 
TABS,ioos:station:wmo:42048:1,2017-12-05T01:00:00Z,27.9396,-96.8429,2.0,29.7646,11111222 
TABS,ioos:station:wmo:42048:1,2017-12-05T01:30:00Z,27.9396,-96.8429,2.0,29.794,11111222 
TABS,ioos:station:wmo:42048:1,2017-12-05T02:00:00Z,27.9396,-96.8429,2.0,29.7991,11111222 
TABS,ioos:station:wmo:42048:1,2017-12-05T02:30:00Z,27.9396,-96.8429,2.0,29.8297,11111222 
TABS,ioos:station:wmo:42048:1,2017-12-05T03:00:00Z,27.9396,-96.8429,2.0,29.8887,11111222 
TABS,ioos:station:wmo:42048:1,2017-12-05T03:30:00Z,27.9396,-96.8429,2.0,29.8998,11111222 
TABS,ioos:station:wmo:42048:1,2017-12-05T04:00:00Z,27.9396,-96.8429,2.0,29.921,11111222 
TABS,ioos:station:wmo:42048:1,2017-12-05T04:30:00Z,27.9396,-96.8429,2.0,29.9424,11111222 
TABS,ioos:station:wmo:42048:1,2017-12-05T05:00:00Z,27.9396,-96.8429,2.0,29.9771,11111222 
TABS,ioos:station:wmo:42048:1,2017-12-05T05:30:00Z,27.9396,-96.8429,2.0,29.9709,11111222 
TABS,ioos:station:wmo:42048:1,2017-12-05T06:00:00Z,27.9396,-96.8429,2.0,29.9708,11111222 
TABS,ioos:station:wmo:42048:1,2017-12-05T06:30:00Z,27.9396,-96.8429,2.0,29.9714,11111222 
TABS,ioos:station:wmo:42048:1,2017-12-05T07:00:00Z,27.9396,-96.8429,2.0,29.9602,11111222 
TABS,ioos:station:wmo:42048:1,2017-12-05T07:30:00Z,27.9396,-96.8429,2.0,29.943,11111222 
TABS,ioos:station:wmo:42048:1,2017-12-05T08:00:00Z,27.9396,-96.8429,2.0,29.9259,11111222 
TABS,ioos:station:wmo:42048:1,2017-12-05T08:30:00Z,27.9396,-96.8429,2.0,29.8907,11111222 
TABS,ioos:station:wmo:42048:1,2017-12-05T09:00:00Z,27.9396,-96.8429,2.0,29.8669,11111222 
TABS,ioos:station:wmo:42048:1,2017-12-05T09:30:00Z,27.9396,-96.8429,2.0,29.8573,11111222 
TABS,ioos:station:wmo:42048:1,2017-12-05T10:00:00Z,27.9396,-96.8429,2.0,29.8315,11111222 
TABS,ioos:station:wmo:42048:1,2017-12-05T10:30:00Z,27.9396,-96.8429,2.0,29.8117,11111222 
TABS,ioos:station:wmo:42048:1,2017-12-05T11:00:00Z,27.9396,-96.8429,2.0,29.7921,11111222 
TABS,ioos:station:wmo:42048:1,2017-12-05T11:30:00Z,27.9396,-96.8429,2.0,29.7746,11111222 
TABS,ioos:station:wmo:42048:1,2017-12-05T12:00:00Z,27.9396,-96.8429,2.0,29.7551,11111222 
TABS,ioos:station:wmo:42048:1,2017-12-05T12:30:00Z,27.9396,-96.8429,2.0,29.7346,11111222 
TABS,ioos:station:wmo:42048:1,2017-12-05T13:00:00Z,27.9396,-96.8429,2.0,29.7185,11111222 
TABS,ioos:station:wmo:42048:1,2017-12-05T13:30:00Z,27.9396,-96.8429,2.0,29.7124,11111222 
TABS,ioos:station:wmo:42048:1,2017-12-05T14:00:00Z,27.9396,-96.8429,2.0,29.7105,11111222 
TABS,ioos:station:wmo:42048:1,2017-12-05T14:30:00Z,27.9396,-96.8429,2.0,29.7091,11111222 
TABS,ioos:station:wmo:42048:1,2017-12-05T15:00:00Z,27.9396,-96.8429,2.0,29.7083,11111222 
TABS,ioos:station:wmo:42048:1,2017-12-05T15:30:00Z,27.9396,-96.8429,2.0,29.7114,11111222 
TABS,ioos:station:wmo:42048:1,2017-12-05T16:00:00Z,27.9396,-96.8429,2.0,29.7141,11111222 
TABS,ioos:station:wmo:42048:1,2017-12-05T16:30:00Z,27.9396,-96.8429,2.0,29.7158,11111222 
TABS,ioos:station:wmo:42048:1,2017-12-05T17:00:00Z,27.9396,-96.8429,2.0,29.7202,11111222 
TABS,ioos:station:wmo:42048:1,2017-12-05T17:30:00Z,27.9396,-96.8429,2.0,29.724,11111222 
TABS,ioos:station:wmo:42048:1,2017-12-05T18:00:00Z,27.9396,-96.8429,2.0,29.7286,11111222 
TABS,ioos:station:wmo:42048:1,2017-12-05T18:30:00Z,27.9396,-96.8429,2.0,29.7358,11111222 
TABS,ioos:station:wmo:42048:1,2017-12-05T19:00:00Z,27.9396,-96.8429,2.0,29.7298,11111222 
TABS,ioos:station:wmo:42048:1,2017-12-05T19:30:00Z,27.9396,-96.8429,2.0,29.7327,11111222 
TABS,ioos:station:wmo:42048:1,2017-12-05T20:00:00Z,27.9396,-96.8429,2.0,29.7207,11111222 
TABS,ioos:station:wmo:42048:1,2017-12-05T20:30:00Z,27.9396,-96.8429,2.0,29.726,11111222 
TABS,ioos:station:wmo:42048:1,2017-12-05T21:00:00Z,27.9396,-96.8429,2.0,29.8998,11111222 
TABS,ioos:station:wmo:42048:1,2017-12-05T21:30:00Z,27.9396,-96.8429,2.0,30.0026,11111222 
TABS,ioos:station:wmo:42048:1,2017-12-05T22:00:00Z,27.9396,-96.8429,2.0,30.134,11111222 
TABS,ioos:station:wmo:42048:1,2017-12-05T22:30:00Z,27.9396,-96.8429,2.0,30.2118,11111222 
TABS,ioos:station:wmo:42048:1,2017-12-05T23:00:00Z,27.9396,-96.8429,2.0,30.2821,11111222 
TABS,ioos:station:wmo:42048:1,2017-12-05T23:30:00Z,27.9396,-96.8429,2.0,30.2993,11111222 
TABS,ioos:station:wmo:42048:1,2017-12-06T00:00:00Z,27.9396,-96.8429,2.0,30.3656,11111222 
TABS,ioos:station:wmo:42048:1,2017-12-06T00:30:00Z,27.9396,-96.8429,2.0,30.4049,11111222 
TABS,ioos:station:wmo:42048:1,2017-12-06T01:00:00Z,27.9396,-96.8429,2.0,30.4428,11111222 
TABS,ioos:station:wmo:42048:1,2017-12-06T01:30:00Z,27.9396,-96.8429,2.0,30.5075,11111222 
TABS,ioos:station:wmo:42048:1,2017-12-06T02:00:00Z,27.9396,-96.8429,2.0,30.599,11111222 
TABS,ioos:station:wmo:42048:1,2017-12-06T02:30:00Z,27.9396,-96.8429,2.0,30.6613,11111222 
TABS,ioos:station:wmo:42048:1,2017-12-06T03:00:00Z,27.9396,-96.8429,2.0,30.7253,11111222 
TABS,ioos:station:wmo:42048:1,2017-12-06T03:30:00Z,27.9396,-96.8429,2.0,30.7411,11111222 
TABS,ioos:station:wmo:42048:1,2017-12-06T04:00:00Z,27.9396,-96.8429,2.0,30.7023,11111222 
TABS,ioos:station:wmo:42048:1,2017-12-06T04:30:00Z,27.9396,-96.8429,2.0,30.7374,11111222 
TABS,ioos:station:wmo:42048:1,2017-12-06T05:00:00Z,27.9396,-96.8429,2.0,30.7496,11111222 
TABS,ioos:station:wmo:42048:1,2017-12-06T05:30:00Z,27.9396,-96.8429,2.0,30.7982,11111222 
TABS,ioos:station:wmo:42048:1,2017-12-06T06:00:00Z,27.9396,-96.8429,2.0,30.8227,11111222 
TABS,ioos:station:wmo:42048:1,2017-12-06T06:30:00Z,27.9396,-96.8429,2.0,30.8917,11111222 
TABS,ioos:station:wmo:42048:1,2017-12-06T07:00:00Z,27.9396,-96.8429,2.0,31.0168,11111222 
TABS,ioos:station:wmo:42048:1,2017-12-06T07:30:00Z,27.9396,-96.8429,2.0,31.1445,11111222 
TABS,ioos:station:wmo:42048:1,2017-12-06T08:00:00Z,27.9396,-96.8429,2.0,31.365,11111222 
TABS,ioos:station:wmo:42048:1,2017-12-06T08:30:00Z,27.9396,-96.8429,2.0,31.5196,11111222 
TABS,ioos:station:wmo:42048:1,2017-12-06T09:00:00Z,27.9396,-96.8429,2.0,31.6679,11111222 
TABS,ioos:station:wmo:42048:1,2017-12-06T09:30:00Z,27.9396,-96.8429,2.0,31.5425,11111222 
TABS,ioos:station:wmo:42048:1,2017-12-06T10:00:00Z,27.9396,-96.8429,2.0,31.4421,11111222 
TABS,ioos:station:wmo:42048:1,2017-12-06T10:30:00Z,27.9396,-96.8429,2.0,31.403,11111222 
TABS,ioos:station:wmo:42048:1,2017-12-06T11:00:00Z,27.9396,-96.8429,2.0,31.3421,11111222 
TABS,ioos:station:wmo:42048:1,2017-12-06T11:30:00Z,27.9396,-96.8429,2.0,31.2857,11111222 
TABS,ioos:station:wmo:42048:1,2017-12-06T12:00:00Z,27.9396,-96.8429,2.0,31.2155,11111222 
TABS,ioos:station:wmo:42048:1,2017-12-06T12:30:00Z,27.9396,-96.8429,2.0,31.1597,11111222 
TABS,ioos:station:wmo:42048:1,2017-12-06T13:00:00Z,27.9396,-96.8429,2.0,31.0083,11111222 
TABS,ioos:station:wmo:42048:1,2017-12-06T13:30:00Z,27.9396,-96.8429,2.0,30.9031,11111222 
TABS,ioos:station:wmo:42048:1,2017-12-06T14:00:00Z,27.9396,-96.8429,2.0,30.8405,11111222 
TABS,ioos:station:wmo:42048:1,2017-12-06T14:30:00Z,27.9396,-96.8429,2.0,30.8529,11111222 
TABS,ioos:station:wmo:42048:1,2017-12-06T15:00:00Z,27.9396,-96.8429,2.0,30.8284,11111222 
TABS,ioos:station:wmo:42048:1,2017-12-06T15:30:00Z,27.9396,-96.8429,2.0,30.7394,11111222 